Location: S�tio Afonso Gruber
(26.1760°S, 49.5250°W)
Time: 00:22:54
(UTC+00:00)

Intelsat 5-3 Rocket - Pass Details

Date: 09 October 2020
Orbit: 281 x 6111 km, 23.6° (Epoch: 22 October)

Event Time Altitude Azimuth Distance (km) Brightness Sun altitude
Exits shadow 06:33:51 38° 285° (WNW) 5,672 6.8 -29.8°
Maximum altitude 06:48:07 56° 337° (NNW) 6,086 7.2 -26.9°
Drops below altitude 10° 07:28:03 10° 46° (NE) 9,067 8.8 -18.5°
Sets 07:35:08 0° 50° (NE) 9,582 9.1 -17.0°
